Dewpoint
56 53 55 54 59 60 56 57 60 62 59 56 59 57 58 56 58 58 58 59 59 56 57 58 60 61 62 61 62 64 64 64 64 63 63 63 62 61 63 63 62 62 59 58 57 54 51 55 55 57 57 57 56 55 54 53 53 53 57 56 54 55 57
52 54 52 51 55 55 58 57 59 57 58 58 57 57 58 58 58 58 59 57 58 58 56 55 57 58 60 61 62 64 65 65 64 64 63 62 62 62 62 61 61 61 62 60 59 58 56 50 51 54 55 57 58 60 57 55 55 56 55 56 55 54 57
53 52 54 52 56 55 56 57 58 58 61 59 59 57 55 56 58 57 57 57 57 56 58 56 56 57 58 58 58 59 62 64 64 64 63 63 62 62 62 61 60 60 60 59 60 59 56 54 54 52 57 57 55 55 59 57 55 55 55 58 56 54 54
54 54 55 51 55 54 54 54 57 58 61 60 62 59 58 57 57 57 58 56 57 57 56 56 56 55 56 58 60 60 60 63 63 64 63 62 62 61 62 61 61 59 58 57 56 58 58 57 58 57 57 58 55 55 57 57 55 54 53 57 56 55 55
54 54 54 52 54 52 55 56 56 57 56 59 60 59 57 58 59 58 57 57 56 56 56 56 56 55 56 56 57 58 58 59 62 63 63 62 62 61 61 62 62 61 60 59 58 58 60 58 59 59 59 58 57 56 56 58 57 53 52 53 55 55 55
54 54 54 54 53 54 53 53 56 55 57 53 54 59 58 55 59 56 56 56 56 56 57 56 56 56 56 57 56 56 56 57 59 61 63 62 62 61 61 62 62 61 60 60 60 61 62 64 63 60 62 63 59 58 60 62 58 55 53 53 55 56 56
54 55 55 53 53 54 53 54 53 54 55 57 56 56 56 56 55 56 55 54 54 53 54 54 55 54 54 54 54 55 55 56 57 57 60 62 63 62 62 61 61 62 62 61 60 61 60 60 60 59 57 59 58 59 61 63 61 57 54 54 54 55 55
54 54 54 53 53 54 55 54 54 55 54 54 53 56 55 55 55 55 55 54 53 53 53 53 54 54 54 54 53 54 55 55 55 57 57 58 60 61 61 61 61 61 61 62 62 61 60 60 59 59 58 56 58 59 58 62 61 60 59 53 54 54 55
52 52 52 53 54 55 55 54 54 55 54 54 54 55 54 54 54 54 54 53 52 52 52 51 52 52 53 54 53 54 53 54 55 55 55 56 57 59 61 62 61 62 62 61 61 61 61 60 59 59 60 59 57 55 58 58 60 60 63 61 56 53 54
52 52 52 53 53 54 55 55 55 54 55 55 54 53 54 54 54 54 53 52 52 51 50 50 50 50 51 52 52 53 54 54 54 54 55 55 55 57 58 61 61 60 60 61 61 61 62 61 61 61 61 60 59 57 56 55 57 58 61 60 55 53 54
51 52 53 53 53 54 54 54 54 53 54 54 54 54 54 53 53 51 52 50 50 50 50 49 48 48 50 50 50 51 51 53 53 54 54 54 55 55 56 58 61 61 61 62 62 61 61 61 61 61 62 62 62 59 58 55 55 58 60 62 60 57 54
50 51 52 53 52 51 52 52 53 53 53 53 52 52 53 52 52 52 52 50 49 48 48 48 48 47 48 49 49 49 50 51 52 52 53 53 54 55 55 55 58 61 61 61 61 62 61 61 61 61 61 62 62 61 59 59 56 57 60 59 61 60 59
48 49 50 51 50 50 50 51 52 52 52 52 52 52 51 50 48 48 48 48 47 47 46 46 46 46 47 47 48 48 48 49 49 50 51 52 52 53 53 54 55 57 62 61 61 61 62 61 61 61 60 61 61 62 61 60 58 56 60 62 61 62 61
49 49 50 50 50 50 51 51 52 52 52 51 51 50 48 46 44 45 44 45 44 45 45 45 46 46 45 45 46 47 46 47 47 47 49 50 51 51 52 52 52 53 55 59 59 59 58 59 61 61 60 60 60 60 60 59 58 57 59 61 61 62 62
50 49 50 50 50 49 50 51 52 51 50 50 50 47 44 46 45 44 43 43 43 43 44 43 44 44 44 44 45 46 46 45 45 46 48 48 49 50 51 51 52 52 53 53 58 57 57 58 58 60 60 59 58 59 60 59 58 57 56 59 60 61 61
49 50 50 50 49 48 50 50 49 50 49 48 48 47 46 45 44 43 42 43 42 42 42 42 44 44 44 44 43 44 46 45 45 45 46 46 47 48 49 50 51 52 54 53 54 56 58 56 56 56 59 60 59 58 59 59 57 56 56 57 60 60 59
50 49 49 49 49 49 49 50 49 49 47 49 46 47 46 43 43 43 43 42 41 41 42 42 43 43 43 43 43 43 43 44 44 44 44 45 45 46 47 49 50 51 52 53 53 53 53 56 57 56 57 59 60 59 58 59 58 56 56 55 59 59 58
49 49 49 49 50 49 49 49 50 46 48 47 46 47 45 44 43 42 43 40 40 41 42 42 43 43 44 44 44 43 43 43 43 43 44 44 46 45 46 47 48 50 51 51 52 53 52 52 54 57 58 58 59 59 59 58 58 56 55 54 57 58 57
49 49 49 49 49 49 49 49 48 49 46 45 45 45 45 43 42 40 39 40 41 41 42 42 42 42 42 43 43 44 43 43 43 43 43 44 44 45 45 46 47 48 49 50 51 52 53 53 53 58 59 59 60 60 60 59 60 59 55 54 56 56 57
48 48 49 49 49 48 47 48 46 44 46 45 45 45 43 41 41 41 40 40 41 41 41 42 42 42 42 42 43 43 43 42 42 43 43 43 43 44 45 45 46 47 48 49 51 51 52 52 54 54 57 58 58 60 59 59 59 59 58 55 56 56 56
48 48 49 49 48 49 48 49 48 48 47 47 45 42 41 41 40 40 41 41 41 41 41 41 41 41 41 41 41 42 42 42 42 42 43 43 43 43 44 45 45 46 47 48 49 51 51 51 52 53 54 57 58 58 59 59 59 58 58 57 56 57 56
48 48 47 47 48 47 46 48 48 47 47 45 44 42 41 40 40 40 40 41 41 41 42 42 41 41 41 41 41 41 41 41 42 42 42 42 43 43 43 44 45 45 47 48 47 47 48 48 52 52 53 54 56 57 56 57 58 58 58 58 57 57 56
46 47 47 47 46 46 45 47 47 46 44 43 42 41 40 40 40 40 40 40 40 42 42 42 42 41 41 42 41 40 41 41 41 41 42 42 43 43 43 44 45 46 46 46 45 44 44 44 45 47 49 50 52 56 57 57 57 58 57 56 56 56 54
45 45 45 45 47 44 44 46 47 46 44 43 42 41 41 39 39 40 39 39 39 41 41 41 40 38 38 39 41 41 40 40 40 40 40 40 40 41 43 43 44 45 45 45 45 43 43 42 42 43 43 44 46 49 52 56 56 56 57 56 57 56 54
44 44 44 42 43 44 46 45 44 43 42 41 42 43 41 40 39 39 40 39 39 39 40 40 38 38 38 38 39 41 40 40 40 40 39 39 39 40 40 41 43 45 45 45 45 46 45 43 42 42 42 42 42 42 44 49 53 56 57 57 57 57 56
42 43 43 43 46 47 44 44 42 41 41 42 44 41 40 40 39 39 39 38 38 38 38 38 37 37 37 37 37 39 39 40 39 39 39 39 39 39 39 40 41 43 44 45 47 46 46 47 44 43 43 43 43 42 41 41 45 53 57 57 57 58 57
41 43 45 46 46 43 43 42 43 43 42 43 44 41 40 40 39 39 38 38 37 37 37 38 37 37 37 36 36 37 38 38 38 38 38 38 39 38 39 39 39 40 41 42 44 45 46 46 46 47 47 46 47 46 43 41 41 42 49 56 58 57 58
41 43 43 43 44 42 43 44 41 41 43 42 42 41 39 39 39 39 39 38 37 37 38 37 36 36 36 36 36 36 37 38 38 38 38 38 38 38 38 39 38 38 39 41 42 43 45 46 46 48 48 49 48 48 48 47 47 46 47 52 56 58 59
45 44 42 42 41 41 42 42 41 43 42 42 42 42 40 39 39 38 37 36 36 36 36 36 35 36 36 36 36 37 37 38 37 37 37 37 37 37 37 38 38 38 38 39 40 39 40 42 44 45 48 49 49 50 51 48 46 46 49 50 52 55 59
44 44 42 41 40 42 42 41 41 42 41 41 41 39 38 38 37 36 36 36 36 35 35 35 35 35 35 35 36 36 37 37 36 36 36 36 36 36 37 37 37 38 38 38 38 37 38 39 41 43 45 47 49 49 50 52 47 44 44 45 47 49 50
39 41 41 39 42 43 43 42 39 41 40 38 38 37 37 36 36 36 35 35 35 35 34 35 35 35 35 35 36 35 37 37 36 36 36 36 37 36 37 40 40 37 37 38 37 37 37 39 40 41 43 45 47 49 50 51 50 46 45 45 45 48 49
43 43 43 43 43 42 42 41 40 41 40 39 38 36 35 35 35 35 34 34 37 35 33 34 34 34 35 35 36 36 36 36 36 36 36 36 36 37 37 38 40 39 38 38 37 37 37 38 40 41 43 46 46 48 50 51 50 50 50 51 50 51 48
44 44 42 42 42 42 41 40 40 39 41 36 34 35 35 34 34 34 34 33 33 33 32 32 33 34 34 34 35 35 36 35 35 35 35 35 36 36 36 36 38 37 36 36 37 36 37 37 38 40 42 44 47 48 52 52 51 52 52 52 52 51 50
42 42 41 42 41 41 40 39 39 39 38 36 35 35 35 35 34 33 33 32 31 31 32 32 32 33 34 34 34 35 34 36 36 36 36 36 36 37 37 37 37 37 36 36 36 36 36 37 37 39 39 40 43 47 48 52 49 46 50 48 48 48 47
41 42 42 42 42 39 40 38 39 36 34 34 34 34 34 34 33 33 32 32 31 31 32 34 32 33 34 34 34 35 34 36 37 37 36 37 37 37 37 37 37 37 36 36 36 36 36 36 36 38 38 38 38 39 44 50 49 48 47 46 46 45 45
40 38 40 41 39 38 39 38 39 38 38 35 33 33 33 33 33 32 32 31 31 31 31 32 34 33 34 34 34 34 35 35 36 38 38 37 37 37 37 37 38 38 36 36 36 36 36 37 37 38 37 37 37 38 41 48 46 47 46 46 45 44 44
40 40 40 39 37 37 37 38 37 35 37 35 32 32 32 32 31 32 31 31 31 31 31 32 33 34 33 34 34 34 35 35 35 36 37 37 37 36 36 37 37 37 36 36 36 36 37 37 38 37 37 37 37 38 44 47 46 46 43 43 43 44 44